User: anonymous
Location: Kitchener
(43.4500°N, 80.5000°W)
Time: 17:38:42
(UTC-04:00)
Language:

Cosmos 1939 Rocket - Orbit

View from above orbital plane
View from above orbital plane
View from above satellite
View from above satellite

Ground track
Ground track

The orbit data is extracted from the following two-line orbital elements,

1 19046U 88032B   14205.10660612  .00000646  00000-0  56837-4 0  9310
2 19046 097.6503 259.0123 0033440 340.0993 019.8923 14.99600089413732
Epoch (UTC): 24 July 2014 02:33:30
Eccentricity: 0.0033440
inclination: 97.6503°
perigee height: 545 km
apogee height: 591 km
right ascension of ascending node: 259.0123°
argument of perigee: 340.0993°
revolutions per day: 14.99600089
mean anomaly at epoch: 19.8923°
orbit number at epoch: 41373

The dashed part of the orbit path shows where the satellite is in the earth's shadow,  

DLR